Flag for Belarus Weather past 2 weeks in Barysaw, Belarus

Now
34 °F

Clear.


Feels Like: 29 °F
Forecast: 30 / 55 °F
Wind: 6 mph from Northwest

Location: Minsk

Current Time: Oct 1, 2014 at 7:15:54 AM

Latest Report: Oct 1, 2014 at 7:00 AM


Visibility: 10 mi

Pressure: 30.33 "Hg

Humidity: 100%

Dew point: 34 °F

Location of BarysawLocation

Historic Weather in Barysaw — Graph

°F

Barysaw temperature yesterday

Maximum temperature yesterday: 61 °F (at 2:00 PM)
Minimum temperature yesterday: 39 °F (at 10:30 PM)
Average temperature yesterday: 53 °F

Past Weeks' High & Low Weather Summary

 TemperatureHumidityPressure
High66 °F (Sep 16, 4:30 PM)100% (Sep 16, 6:00 AM)30.36 "Hg (Sep 16, 6:00 AM)
Low27 °F (Sep 25, 7:00 AM)30% (Sep 19, 4:30 PM)29.47 "Hg (Sep 23, 3:30 AM)
Average49 °F80%30.06 "Hg
* Reported Sep 16 6:00 AM — Oct 1 6:00 AM, Barysaw, Weather by CustomWeather, © 2014

Note: Actual official high and low records may vary slightly from our data, if they occured in-between our weather recording intervals... More about our weather records

Advertising

Barysaw weather history for previous 24 hours

 ConditionsComfort  
Time TempWeatherWind HumidityBarometerVisibility
6:00 AM
Oct 1
36 °FClear.6 mph100%30.30 "Hg10 mi
5:30 AM36 °FLight fog.6 mph100%30.30 "HgN/A
5:00 AM36 °FClear.6 mph93%30.30 "Hg10 mi
4:30 AM37 °FClear.6 mph93%30.30 "Hg10 mi
4:00 AM37 °FLight fog.6 mph93%30.27 "HgN/A
3:30 AM37 °FLight fog.6 mph100%30.27 "HgN/A
3:00 AM37 °FLight fog.3 mph93%30.27 "HgN/A
2:30 AM37 °FLight fog.3 mph93%30.24 "HgN/A
2:00 AM39 °FClear.3 mph93%30.24 "Hg10 mi
1:30 AM41 °FClear.3 mph93%30.24 "Hg10 mi
1:00 AM41 °FPartly cloudy.3 mph87%30.24 "HgN/A
12:30 AM39 °FPassing clouds.3 mph93%30.24 "HgN/A
11:30 PM
Sep 30
39 °FClear.3 mph93%30.21 "Hg10 mi
11:00 PM39 °FClear.1 mph93%30.21 "Hg10 mi
10:30 PM39 °FPassing clouds.3 mph93%30.21 "HgN/A
10:00 PM41 °FPassing clouds.1 mph87%30.21 "HgN/A
9:30 PM43 °FPartly cloudy.No wind87%30.21 "HgN/A
9:00 PM45 °FClear.3 mph76%30.21 "Hg10 mi
8:30 PM45 °FClear.1 mph76%30.21 "Hg10 mi
8:00 PM48 °FClear.3 mph66%30.18 "Hg10 mi
7:30 PM50 °FSunny.6 mph62%30.18 "Hg10 mi
7:00 PM50 °FSunny.6 mph62%30.18 "Hg10 mi
6:30 PM54 °FSunny.6 mph54%30.15 "Hg10 mi
6:00 PM55 °FSunny.6 mph51%30.15 "Hg10 mi
5:30 PM55 °FSunny.8 mph51%30.15 "Hg10 mi
5:00 PM57 °FSunny.13 mph44%30.15 "Hg10 mi
4:30 PM59 °FPartly sunny.15 mph39%30.15 "HgN/A
4:00 PM61 °FPartly sunny.15 mph34%30.15 "HgN/A
3:30 PM59 °FPartly sunny.10 mph42%30.15 "HgN/A
3:00 PM61 °FPartly sunny.15 mph39%30.12 "HgN/A
2:30 PM61 °FPartly sunny.15 mph39%30.12 "HgN/A
2:00 PM61 °FPartly sunny.13 mph42%30.12 "HgN/A
1:30 PM59 °FPartly sunny.13 mph39%30.12 "HgN/A
1:00 PM59 °FSunny.15 mph39%30.12 "Hg10 mi
12:30 PM59 °FSunny.13 mph45%30.12 "Hg10 mi
12:00 PM59 °FPartly sunny.15 mph45%30.12 "HgN/A
11:30 AM57 °FPartly sunny.13 mph51%30.12 "HgN/A
11:00 AM57 °FPartly sunny.13 mph59%30.15 "HgN/A
10:30 AM55 °FBroken clouds.13 mph63%30.15 "HgN/A
10:00 AM55 °FBroken clouds.13 mph67%30.12 "HgN/A
9:30 AM54 °FBroken clouds.13 mph77%30.12 "HgN/A
9:00 AM54 °FBroken clouds.13 mph77%30.12 "HgN/A
8:30 AM52 °FBroken clouds.6 mph94%30.12 "HgN/A
8:00 AM52 °FPartly cloudy.6 mph94%30.09 "HgN/A
7:30 AM52 °FPartly cloudy.6 mph94%30.09 "HgN/A
7:00 AM52 °FPartly cloudy.6 mph94%30.09 "HgN/A
Weather by CustomWeather, © 2014

See weather overviewHow to use our weather pages